Flag Weather past 2 weeks in Tarnów, Poland

Now
36 °F

Chilly.


Feels Like: 36 °F
Forecast: 28 / 35 °F
Wind: No wind

Location: Tarnow

Current Time: Nov 26, 2014 at 10:01:55 AM

Latest Report: Nov 26, 2014 at 9:00 AM


Visibility: 1 mi

Pressure: 30.34 "Hg

Humidity: 99%

Dew point: 35 °F

Location of TarnówLocation

Historic Weather in Tarnów — Graph

°F

Tarnów temperature yesterday

Maximum temperature yesterday: 40 °F (at 2:00 PM)
Minimum temperature yesterday: 34 °F (at 9:00 PM)
Average temperature yesterday: 37 °F

Past Weeks' High & Low Weather Summary

 TemperatureHumidityPressure
High64 °F (Nov 11, 12:00 PM)98% (Nov 20, 9:00 AM)30.51 "Hg (Nov 20, 9:00 AM)
Low29 °F (Nov 24, 7:00 AM)57% (Nov 12, 1:00 PM)29.80 "Hg (Nov 16, 2:00 PM)
Average43 °F87%30.13 "Hg
* Reported Nov 11 8:00 AM — Nov 26 8:00 AM, Tarnów, Weather by CustomWeather, © 2014

Note: Actual official high and low records may vary slightly from our data, if they occured in-between our weather recording intervals... More about our weather records

Advertising

Tarnów weather history for previous 24 hours

 ConditionsComfort  
Time TempWeatherWind HumidityBarometerVisibility
8:00 AM
Nov 26
35 °FDuststorm.1 mph98%30.35 "Hg0 mi
7:00 AM36 °FDuststorm.1 mph98%30.34 "Hg0 mi
6:00 AM36 °FDuststorm.2 mph98%30.32 "Hg1 mi
5:00 AM37 °FDuststorm.No wind98%30.33 "Hg1 mi
4:00 AM37 °FChilly.1 mph98%30.34 "Hg1 mi
3:00 AM36 °FDuststorm.No wind98%30.35 "Hg1 mi
2:00 AM36 °FDuststorm.1 mph98%30.35 "Hg0 mi
1:00 AM35 °FDuststorm.No wind98%30.36 "Hg0 mi
12:00 AM35 °FDuststorm.No wind98%30.37 "Hg0 mi
11:00 PM
Nov 25
35 °FDuststorm.1 mph98%30.37 "Hg0 mi
10:00 PM35 °FDuststorm.1 mph98%30.37 "Hg1 mi
9:00 PM34 °FDuststorm.No wind97%30.39 "Hg0 mi
8:00 PM34 °FDuststorm.1 mph96%30.38 "Hg1 mi
7:00 PM37 °FDuststorm.1 mph96%30.37 "Hg0 mi
6:00 PM39 °FDuststorm.No wind96%30.37 "Hg1 mi
5:00 PM40 °FDuststorm.No wind95%30.36 "Hg1 mi
4:00 PM40 °FFog.1 mph95%30.36 "Hg1 mi
3:00 PM40 °FFog.1 mph95%30.35 "Hg1 mi
2:00 PM40 °FFog.1 mph96%30.35 "Hg2 mi
1:00 PM40 °FFog.1 mph96%30.36 "Hg2 mi
12:00 PM40 °FDrizzle. Cloudy.1 mph97%30.36 "Hg1 mi
11:00 AM39 °FLight rain. Cloudy.1 mph97%30.37 "Hg2 mi
10:00 AM38 °FLight rain. Cloudy.1 mph97%30.37 "Hg1 mi
Weather by CustomWeather, © 2014

See weather overviewHow to use our weather pages